User: anonymous   Login
Location: Remedello Sotto
(45.2500°N, 10.3667°E)
Time: 04:50:34
(UTC+00:00)
Language:

Cosmos 1814 Rocket - Orbit

View from above orbital plane
View from above orbital plane
View from above satellite
View from above satellite

Ground track
Ground track

The orbit data is extracted from the following two-line orbital elements,

1 17304U 87006B   23154.12423077  .00000313  00000-0  11141-3 0  9995
2 17304  74.0600  48.6029 0028577  61.5652 298.8377 14.38047481905937
Epoch (UTC): 03 June 2023 02:58:53
Eccentricity: 0.0028577
inclination: 74.0600°
perigee height: 744 km
apogee height: 785 km
right ascension of ascending node: 48.6029°
argument of perigee: 61.5652°
revolutions per day: 14.38047481
mean anomaly at epoch: 298.8377°
orbit number at epoch: 90593

The dashed part of the orbit path shows where the satellite is in the earth's shadow,  

DLR